Location: Shenandoah County Park
(38.9356°N, 78.4524°W)
Time: 18:57:37
(UTC-04:00)

BlueWalker 3 - Pass Details

Date: 13 September 2024
Orbit: 473 x 485 km, 53.2° (Epoch: 05 October)

Event Time Altitude Azimuth Distance (km) Brightness Sun altitude
Rises 20:45:31 0° 310° (NW) 2,546 6.8 -16.3°
Reaches altitude 10° 20:47:41 10° 310° (NW) 1,666 5.7 -16.7°
Maximum altitude 20:51:27 82° 222° (SW) 494 1.8 -17.4°
Enters shadow 20:52:42 40° 140° (SE) 724 2.3 -17.6°
